Regional Weather Roundup
Issued by NWS

Home | Current Version | Previous Version | Text Only | Print | Product List | Glossary Off
Versions: 1 2 3 4 5 6 7 8 9 10 11 12 13 14 15 16 17 18 19 20 21 22 23 24 25 26 27 28 29 30 31 32 33 34 35 36 37 38 39 40 41 42 43 44 45 46 47 48 49 50

000
ASUS43 KLSX 222307
RWRMO
STLRWRMO ALL

WEATHER SUMMARY FOR MISSOURI
NATIONAL WEATHER SERVICE SPRINGFIELD MO
600 PM CDT SAT APR 22 2017

NOTE: "FAIR" INDICATES FEW OR NO CLOUDS BELOW 12,000 FEET WITH NO
       SIGNIFICANT WEATHER AND/OR OBSTRUCTIONS TO VISIBILITY.
       CURRENT SKY AND/OR WEATHER CONDITIONS ARE NOT AVAILABLE FOR
       CHILLICOTHE AND FARMINGTON.

MOZ001>031-035>038-043-044-053-054-230000-
...NORTHERN AND WESTERN MISSOURI...

CITY           SKY/WX    TMP DP  RH WIND       PRES   REMARKS
KANSAS CTY INT MOSUNNY   62  30  29 NE14      30.12R
KANSAS C DTWN  SUNNY     65  28  24 N17       30.10R
LEE`S SUMMIT   SUNNY     63  29  27 N20       30.10R
ST JOSEPH      LGT RAIN  61  36  39 NE14      30.15R
CHILLICOTHE      N/A     63  29  27 N7G18     30.13R
KIRKSVILLE     SUNNY     62  34  35 NE14G26   30.12R

$$
MOZ066>068-077>081-088>096-101>105-230000-
...SOUTHWEST MISSOURI...

CITY           SKY/WX    TMP DP  RH WIND       PRES   REMARKS
SPRINGFIELD    CLOUDY    50  41  71 N10       30.06R
JOPLIN         CLOUDY    51  41  68 NE6       30.09S
BRANSON        LGT RAIN  46  45  93 N10       30.06R FOG

$$
MOZ032>034-039>042-045>050-055>058-069>072-230000-
...CENTRAL MISSOURI...

CITY           SKY/WX    TMP DP  RH WIND       PRES   REMARKS
COLUMBIA       SUNNY     62  36  37 NE16G25   30.06R
JEFFERSON CITY MOSUNNY   65  36  34 VRB5      30.04S
ROLLA          CLOUDY    55  40  56 NE14      30.03S
WHITEMAN AFB   SUNNY     64  33  31 NE15G26   30.06R
OSAGE BEACH    CLOUDY    58  39  49 NE6       30.06R

$$
MOZ051-052-059>065-230000-
...EAST CENTRAL MISSOURI...

CITY           SKY/WX    TMP DP  RH WIND       PRES   REMARKS
ST LOUIS INTL  PTSUNNY   62  35  36 NE13G23   30.03S
SPIRIT OF STL  CLOUDY    62  37  39 NE17G24   30.03S
ST CHARLES     PTSUNNY   63  36  36 NE17G24   30.03S

$$
MOZ072>076-082>087-097>100-106>115-230000-
...SOUTH CENTRAL AND SOUTHEAST MISSOURI...

CITY           SKY/WX    TMP DP  RH WIND       PRES   REMARKS
CAPE GIRARDEAU CLOUDY    53  46  77 N15       29.97S
FARMINGTON     CLOUDY    49  44  83 N8G16     30.02S
POPLAR BLUFF   CLOUDY    52  47  83 N15       29.97R
WEST PLAINS    CLOUDY    48  44  86 N8        30.03R

$$




USA.gov is the U.S. government's official web portal to all federal, state and local government web resources and services.